Montreal Mirabel, Quebec

8:46 AM EDT on May 24, 2017 (GMT -0400)
Montreal Mirabel

Weather History for CYMX - April, 2012

Change the Weather History Date:

Thursday, April 26, 2012

  Actual Average Record
Temperature  
Mean Temperature 39 °F -  
Max Temperature 50 °F 55 °F 69 °F (2008)
Min Temperature 28 °F 35 °F 24 °F (1998)
Degree Days  
Heating Degree Days 26    
Moisture  
Dew Point 35 °F    
Average Humidity 78    
Maximum Humidity 100    
Minimum Humidity 50    
Precipitation  
Precipitation 0.00 in - - ()
Sea Level Pressure  
Sea Level Pressure 29.77 in    
Wind  
Wind Speed 4 mph ()    
Max Wind Speed 12 mph    
Max Gust Speed -    
Visibility 9.2 miles    
Events Rain    
Averages and records for this station are not official NWS values.
T = Trace of Precipitation, MM = Missing Value Source: Averaged Metar Reports

Daily Weather History Graph

Daily Weather History Graph

Search for Another Location

Airport or City:

Trip Planner

Search our weather history database for the weather conditions in past years. The results will help you decide how hot, cold, wet, or windy it might be!

Date:

Astronomy

Apr. 26, 2012 Rise Set
Actual Time 5:50 AM EDT 7:57 PM EDT
Civil Twilight 5:18 AM EDT 8:29 PM EDT
Nautical Twilight 4:38 AM EDT 9:10 PM EDT
Astronomical Twilight 3:54 AM EDT 9:54 PM EDT
Moon 9:21 AM EDT (4/26) 12:07 AM EDT (4/26)
Length of Visible Light 15h 11m
Length of Day
14h 06m
Waxing Crescent, 24% of the Moon is Illuminated
Apr 26
Waxing Crescent
Apr 29
First Quarter
May 5
Full
May 12
Last Quarter
May 20
New

Hourly Weather History & Observations

Time (EDT) Temp. Windchill Dew Point Humidity Pressure Visibility Wind Dir Wind Speed Gust Speed Precip Events Conditions
12:00 AM 41.0 °F 39.0 °F 33.8 °F 76% 29.87 in 25.0 mi West 3.5 mph - N/A   Overcast
1:00 AM 39.2 °F - 33.8 °F 81% 29.87 in 25.0 mi SW 2.3 mph - N/A   Mostly Cloudy
2:00 AM 33.8 °F - 32.0 °F 93% 29.88 in 25.0 mi WNW 2.3 mph - N/A   Scattered Clouds
3:00 AM 33.8 °F - 32.0 °F 93% 29.87 in 25.0 mi SE 2.3 mph - N/A   Scattered Clouds
4:00 AM 32.0 °F 26.4 °F 32.0 °F 100% 29.87 in 25.0 mi West 5.8 mph - N/A   Partly Cloudy
5:00 AM 30.2 °F - 30.2 °F 100% 29.87 in 25.0 mi West 2.3 mph - N/A   Partly Cloudy
6:00 AM 28.4 °F - 28.4 °F 100% 29.88 in 25.0 mi WNW 2.3 mph - N/A   Scattered Clouds
7:00 AM 30.2 °F - 30.2 °F 100% 29.88 in 25.0 mi Calm Calm - N/A   Mostly Cloudy
8:00 AM 35.6 °F - 33.8 °F 93% 29.89 in 25.0 mi Calm Calm - N/A   Mostly Cloudy
9:00 AM 39.2 °F - 33.8 °F 81% 29.88 in 25.0 mi SSW 2.3 mph - N/A   Mostly Cloudy
10:00 AM 42.8 °F - 33.8 °F 70% 29.87 in 25.0 mi Calm Calm - N/A   Mostly Cloudy
11:00 AM 46.4 °F 45.2 °F 33.8 °F 62% 29.84 in 35.0 mi SW 3.5 mph - N/A   Mostly Cloudy
12:00 PM 50.0 °F - 32.0 °F 50% 29.81 in 45.0 mi South 8.1 mph - N/A   Mostly Cloudy
1:00 PM 48.2 °F - 32.0 °F 54% 29.79 in 45.0 mi SSE 6.9 mph - N/A   Overcast
2:00 PM 48.2 °F - 32.0 °F 54% 29.75 in 45.0 mi ESE 3.5 mph - N/A   Overcast
3:00 PM 50.0 °F - 32.0 °F 50% 29.70 in 45.0 mi ENE 11.5 mph - N/A   Overcast
4:00 PM 50.0 °F - 33.8 °F 54% 29.67 in 45.0 mi East 9.2 mph - N/A   Overcast
5:00 PM 48.2 °F - 32.0 °F 54% 29.65 in 45.0 mi ENE 10.4 mph - N/A   Overcast
5:50 PM 48.2 °F - 33.8 °F 58% - 12.0 mi ENE 9.2 mph - N/A Rain Light Rain
6:00 PM 48.2 °F - 35.6 °F 62% 29.63 in 8.0 mi ENE 8.1 mph - N/A Rain Light Rain
7:00 PM 46.4 °F 41.9 °F 37.4 °F 71% 29.61 in 12.0 mi ENE 9.2 mph - N/A Rain Light Rain
8:00 PM 44.6 °F 39.7 °F 41.0 °F 87% 29.58 in 12.0 mi East 9.2 mph - N/A Rain Light Rain
9:00 PM 44.6 °F 40.2 °F 42.8 °F 93% 29.59 in 12.0 mi East 8.1 mph - N/A Rain Light Rain
9:37 PM 42.8 °F 39.3 °F 42.8 °F 100% - 6.0 mi ENE 5.8 mph - N/A Rain Light Rain
10:00 PM 42.8 °F 40.1 °F 42.8 °F 100% 29.57 in 6.0 mi ENE 4.6 mph - N/A Rain Light Rain
11:00 PM 42.8 °F 39.3 °F 41.0 °F 93% 29.57 in 6.0 mi NNE 5.8 mph - N/A Rain Light Rain